Location: Unspecified
(0.0000°N, 0.0000°E)
Time: 22:49:54
(UTC+00:00)

Envisat - Pass Details

Date: 03 December 2022
Orbit: 763 x 765 km, 98.2° (Epoch: 02 December)

Event Time Altitude Azimuth Distance (km) Brightness Sun altitude
Exits shadow 04:39:39 24° 274° (W) 1,530 4.0 -16.2°
Drops below altitude 10° 04:43:18 10° 228° (SW) 2,299 5.2 -15.3°
Sets 04:45:59 0° 215° (SW) 3,228 6.1 -14.7°
